Year,Month,Day,Hour,Minute,Value (Times are PST for temperature in C)
2008,05,25,00,00,17.70
2008,05,25,00,01,17.70
2008,05,25,00,02,17.60
2008,05,25,00,03,17.50
2008,05,25,00,04,17.50
2008,05,25,00,05,17.40
2008,05,25,00,06,17.30
2008,05,25,00,07,17.20
2008,05,25,00,08,17.10
2008,05,25,00,09,17.00
2008,05,25,00,10,16.90
2008,05,25,00,11,16.80
2008,05,25,00,12,16.70
2008,05,25,00,13,16.70
2008,05,25,00,14,16.60
2008,05,25,00,15,16.50
2008,05,25,00,16,16.40
2008,05,25,00,17,16.30
2008,05,25,00,18,16.10
2008,05,25,00,19,16.10
2008,05,25,00,20,15.90
2008,05,25,00,21,15.80
2008,05,25,00,22,15.80
2008,05,25,00,23,15.70
2008,05,25,00,24,15.70
2008,05,25,00,25,15.60
2008,05,25,00,26,15.60
2008,05,25,00,27,15.60
2008,05,25,00,28,15.60
2008,05,25,00,29,15.60
2008,05,25,00,30,15.60
2008,05,25,00,31,15.60
2008,05,25,00,32,15.60
2008,05,25,00,33,15.50
2008,05,25,00,34,15.50
2008,05,25,00,35,15.50
2008,05,25,00,36,15.50
2008,05,25,00,37,15.50
2008,05,25,00,38,15.50
2008,05,25,00,39,15.50
2008,05,25,00,40,15.40
2008,05,25,00,41,15.40
2008,05,25,00,42,15.30
2008,05,25,00,43,15.20
2008,05,25,00,44,15.10
2008,05,25,00,45,15.10
2008,05,25,00,46,15.00
2008,05,25,00,47,14.90
2008,05,25,00,48,14.80
2008,05,25,00,49,14.80
2008,05,25,00,50,14.80
2008,05,25,00,51,14.70
2008,05,25,00,52,14.70
2008,05,25,00,53,14.60
2008,05,25,00,54,14.60
2008,05,25,00,55,14.60
2008,05,25,00,56,14.60
2008,05,25,00,57,14.60
2008,05,25,00,58,14.70
2008,05,25,00,59,14.70
2008,05,25,01,00,14.70
2008,05,25,01,01,14.80
2008,05,25,01,02,14.70
2008,05,25,01,03,14.70
2008,05,25,01,04,14.70
2008,05,25,01,05,14.60
2008,05,25,01,06,14.60
2008,05,25,01,07,14.50
2008,05,25,01,08,14.40
2008,05,25,01,09,14.30
2008,05,25,01,10,14.20
2008,05,25,01,11,14.20
2008,05,25,01,12,14.20
2008,05,25,01,13,14.20
2008,05,25,01,14,14.30
2008,05,25,01,15,14.40
2008,05,25,01,16,14.50
2008,05,25,01,17,14.60
2008,05,25,01,18,14.70
2008,05,25,01,19,14.80
2008,05,25,01,20,14.80
2008,05,25,01,21,14.80
2008,05,25,01,22,14.80
2008,05,25,01,23,14.70
2008,05,25,01,24,14.70
2008,05,25,01,25,14.70
2008,05,25,01,26,14.60
2008,05,25,01,27,14.60
2008,05,25,01,28,14.50
2008,05,25,01,29,14.40
2008,05,25,01,30,14.20
2008,05,25,01,31,14.20
2008,05,25,01,32,14.00
2008,05,25,01,33,14.00
2008,05,25,01,34,13.90
2008,05,25,01,35,13.80
2008,05,25,01,36,13.80
2008,05,25,01,37,13.80
2008,05,25,01,38,13.80
2008,05,25,01,39,13.90
2008,05,25,01,40,13.90
2008,05,25,01,41,13.90
2008,05,25,01,42,13.90
2008,05,25,01,43,13.90
2008,05,25,01,44,13.90
2008,05,25,01,45,14.00
2008,05,25,01,46,14.00
2008,05,25,01,47,14.10
2008,05,25,01,48,14.20
2008,05,25,01,49,14.30
2008,05,25,01,50,14.30
2008,05,25,01,51,14.40
2008,05,25,01,52,14.50
2008,05,25,01,53,14.60
2008,05,25,01,54,14.60
2008,05,25,01,55,14.70
2008,05,25,01,56,14.80
2008,05,25,01,57,14.90
2008,05,25,01,58,15.00
2008,05,25,01,59,15.10
2008,05,25,02,00,15.20
2008,05,25,02,01,15.30
2008,05,25,02,02,15.40
2008,05,25,02,03,15.50
2008,05,25,02,04,15.60
2008,05,25,02,05,15.70
2008,05,25,02,06,15.80
2008,05,25,02,07,15.80
2008,05,25,02,08,15.90
2008,05,25,02,09,16.00
2008,05,25,02,10,16.10
2008,05,25,02,11,16.00
2008,05,25,02,12,15.90
2008,05,25,02,13,15.90
2008,05,25,02,14,15.80
2008,05,25,02,15,15.80
2008,05,25,02,16,15.80
2008,05,25,02,17,15.80
2008,05,25,02,18,15.80
2008,05,25,02,19,15.80
2008,05,25,02,20,15.80
2008,05,25,02,21,15.70
2008,05,25,02,22,15.60
2008,05,25,02,23,15.50
2008,05,25,02,24,15.40
2008,05,25,02,25,15.40
2008,05,25,02,26,15.40
2008,05,25,02,27,15.40
2008,05,25,02,28,15.40
2008,05,25,02,29,15.40
2008,05,25,02,30,15.40
2008,05,25,02,31,15.40
2008,05,25,02,32,15.30
2008,05,25,02,33,15.30
2008,05,25,02,34,15.30
2008,05,25,02,35,15.30
2008,05,25,02,36,15.30
2008,05,25,02,37,15.30
2008,05,25,02,38,15.40
2008,05,25,02,39,15.40
2008,05,25,02,40,15.40
2008,05,25,02,41,15.50
2008,05,25,02,42,15.50
2008,05,25,02,43,15.60
2008,05,25,02,44,15.70
2008,05,25,02,45,15.80
2008,05,25,02,46,15.80
2008,05,25,02,47,15.90
2008,05,25,02,48,15.90
2008,05,25,02,49,15.90
2008,05,25,02,50,16.00
2008,05,25,02,51,16.10
2008,05,25,02,52,16.20
2008,05,25,02,53,16.20
2008,05,25,02,54,16.30
2008,05,25,02,55,16.40
2008,05,25,02,56,16.50
2008,05,25,02,57,16.60
2008,05,25,02,58,16.80
2008,05,25,02,59,16.90
2008,05,25,03,00,16.90
2008,05,25,03,01,17.00
2008,05,25,03,02,17.00
2008,05,25,03,03,17.00
2008,05,25,03,04,17.10
2008,05,25,03,05,17.10
2008,05,25,03,06,17.20
2008,05,25,03,07,17.20
2008,05,25,03,08,17.30
2008,05,25,03,09,17.40
2008,05,25,03,10,17.50
2008,05,25,03,11,17.60
2008,05,25,03,12,17.70
2008,05,25,03,13,17.70
2008,05,25,03,14,17.80
2008,05,25,03,15,17.90
2008,05,25,03,16,17.90
2008,05,25,03,17,17.90
2008,05,25,03,18,17.90
2008,05,25,03,19,17.90
2008,05,25,03,20,17.90
2008,05,25,03,21,17.80
2008,05,25,03,22,17.70
2008,05,25,03,23,17.70
2008,05,25,03,24,17.50
2008,05,25,03,25,17.50
2008,05,25,03,26,17.60
2008,05,25,03,27,17.70
2008,05,25,03,28,17.80
2008,05,25,03,29,17.90
2008,05,25,03,30,17.90
2008,05,25,03,31,18.00
2008,05,25,03,32,18.10
2008,05,25,03,33,18.10
2008,05,25,03,34,18.10
2008,05,25,03,35,18.10
2008,05,25,03,36,18.10
2008,05,25,03,37,18.10
2008,05,25,03,38,18.20
2008,05,25,03,39,18.30
2008,05,25,03,40,18.50
2008,05,25,03,41,18.50
2008,05,25,03,42,18.60
2008,05,25,03,43,18.60
2008,05,25,03,44,18.60
2008,05,25,03,45,18.50
2008,05,25,03,46,18.50
2008,05,25,03,47,18.40
2008,05,25,03,48,18.40
2008,05,25,03,49,18.40
2008,05,25,03,50,18.40
2008,05,25,03,51,18.30
2008,05,25,03,52,18.30
2008,05,25,03,53,18.30
2008,05,25,03,54,18.30
2008,05,25,03,55,18.30
2008,05,25,03,56,18.40
2008,05,25,03,57,18.40
2008,05,25,03,58,18.50
2008,05,25,03,59,18.50
2008,05,25,04,00,18.50
2008,05,25,04,01,18.60
2008,05,25,04,02,18.60
2008,05,25,04,03,18.60
2008,05,25,04,04,18.60
2008,05,25,04,05,18.60
2008,05,25,04,06,18.60
2008,05,25,04,07,18.60
2008,05,25,04,08,18.60
2008,05,25,04,09,18.60
2008,05,25,04,10,18.50
2008,05,25,04,11,18.50
2008,05,25,04,12,18.50
2008,05,25,04,13,18.40
2008,05,25,04,14,18.30
2008,05,25,04,15,18.30
2008,05,25,04,16,18.30
2008,05,25,04,17,18.20
2008,05,25,04,18,18.20
2008,05,25,04,19,18.20
2008,05,25,04,20,18.20
2008,05,25,04,21,18.20
2008,05,25,04,22,18.20
2008,05,25,04,23,18.10
2008,05,25,04,24,18.10
2008,05,25,04,25,17.90
2008,05,25,04,26,17.90
2008,05,25,04,27,17.80
2008,05,25,04,28,17.70
2008,05,25,04,29,17.70
2008,05,25,04,30,17.60
2008,05,25,04,31,17.50
2008,05,25,04,32,17.40
2008,05,25,04,33,17.30
2008,05,25,04,34,17.20
2008,05,25,04,35,17.10
2008,05,25,04,36,17.00
2008,05,25,04,37,17.00
2008,05,25,04,38,16.90
2008,05,25,04,39,16.80
2008,05,25,04,40,16.80
2008,05,25,04,41,16.70
2008,05,25,04,42,16.70
2008,05,25,04,43,16.60
2008,05,25,04,44,16.50
2008,05,25,04,45,16.40
2008,05,25,04,46,16.30
2008,05,25,04,47,16.20
2008,05,25,04,48,16.10
2008,05,25,04,49,16.00
2008,05,25,04,50,15.90
2008,05,25,04,51,15.90
2008,05,25,04,52,15.80
2008,05,25,04,53,15.80
2008,05,25,04,54,15.80
2008,05,25,04,55,15.80
2008,05,25,04,56,15.80
2008,05,25,04,57,15.80
2008,05,25,04,58,15.80
2008,05,25,04,59,15.80
2008,05,25,05,00,15.80
2008,05,25,05,01,15.80
2008,05,25,05,02,15.80
2008,05,25,05,03,15.80
2008,05,25,05,04,15.80
2008,05,25,05,05,15.80
2008,05,25,05,06,15.80
2008,05,25,05,07,15.80
2008,05,25,05,08,15.80
2008,05,25,05,09,15.80
2008,05,25,05,10,15.80
2008,05,25,05,11,15.80
2008,05,25,05,12,15.80
2008,05,25,05,13,15.80
2008,05,25,05,14,15.60
2008,05,25,05,15,15.60
2008,05,25,05,16,15.50
2008,05,25,05,17,15.50
2008,05,25,05,18,15.50
2008,05,25,05,19,15.50
2008,05,25,05,20,15.50
2008,05,25,05,21,15.40
2008,05,25,05,22,15.40
2008,05,25,05,23,15.40
2008,05,25,05,24,15.40
2008,05,25,05,25,15.30
2008,05,25,05,26,15.30
2008,05,25,05,27,15.30
2008,05,25,05,28,15.30
2008,05,25,05,29,15.30
2008,05,25,05,30,15.30
2008,05,25,05,31,15.30
2008,05,25,05,32,15.30
2008,05,25,05,33,15.30
2008,05,25,05,34,15.30
2008,05,25,05,35,15.20
2008,05,25,05,36,15.20
2008,05,25,05,37,15.20
2008,05,25,05,38,15.20
2008,05,25,05,39,15.10
2008,05,25,05,40,15.10
2008,05,25,05,41,15.10
2008,05,25,05,42,15.10
2008,05,25,05,43,15.10
2008,05,25,05,44,15.10
2008,05,25,05,45,15.10
2008,05,25,05,46,15.20
2008,05,25,05,47,15.20
2008,05,25,05,48,15.30
2008,05,25,05,49,15.30
2008,05,25,05,50,15.30
2008,05,25,05,51,15.30
2008,05,25,05,52,15.40
2008,05,25,05,53,15.40
2008,05,25,05,54,15.50
2008,05,25,05,55,15.60
2008,05,25,05,56,15.60
2008,05,25,05,57,15.70
2008,05,25,05,58,15.70
2008,05,25,05,59,15.70
2008,05,25,06,00,15.60
2008,05,25,06,01,15.60
2008,05,25,06,02,15.60
2008,05,25,06,03,15.60
2008,05,25,06,04,15.60
2008,05,25,06,05,15.60
2008,05,25,06,06,15.60
2008,05,25,06,07,15.60
2008,05,25,06,08,15.50
2008,05,25,06,09,15.50
2008,05,25,06,10,15.50
2008,05,25,06,11,15.50
2008,05,25,06,12,15.50
2008,05,25,06,13,15.50
2008,05,25,06,14,15.50
2008,05,25,06,15,15.50
2008,05,25,06,16,15.50
2008,05,25,06,17,15.50
2008,05,25,06,18,15.50
2008,05,25,06,19,15.60
2008,05,25,06,20,15.60
2008,05,25,06,21,15.70
2008,05,25,06,22,15.70
2008,05,25,06,23,15.80
2008,05,25,06,24,15.80
2008,05,25,06,25,15.80
2008,05,25,06,26,15.90
2008,05,25,06,27,16.00
2008,05,25,06,28,16.10
2008,05,25,06,29,16.10
2008,05,25,06,30,16.10
2008,05,25,06,31,16.20
2008,05,25,06,32,16.20
2008,05,25,06,33,16.30
2008,05,25,06,34,16.30
2008,05,25,06,35,16.30
2008,05,25,06,36,16.30
2008,05,25,06,37,16.30
2008,05,25,06,38,16.30
2008,05,25,06,39,16.30
2008,05,25,06,40,16.30
2008,05,25,06,41,16.30
2008,05,25,06,42,16.30
2008,05,25,06,43,16.30
2008,05,25,06,44,16.20
2008,05,25,06,45,16.20
2008,05,25,06,46,16.20
2008,05,25,06,47,16.10
2008,05,25,06,48,16.10
2008,05,25,06,49,16.10
2008,05,25,06,50,16.10
2008,05,25,06,51,16.10
2008,05,25,06,52,16.10
2008,05,25,06,53,16.10
2008,05,25,06,54,16.10
2008,05,25,06,55,16.10
2008,05,25,06,56,15.90
2008,05,25,06,57,15.90
2008,05,25,06,58,15.90
2008,05,25,06,59,16.00
2008,05,25,07,00,16.10
2008,05,25,07,01,16.10
2008,05,25,07,02,16.20
2008,05,25,07,03,16.40
2008,05,25,07,04,16.60
2008,05,25,07,05,16.70
2008,05,25,07,06,16.90
2008,05,25,07,07,17.10
2008,05,25,07,08,17.20
2008,05,25,07,09,17.30
2008,05,25,07,10,17.40
2008,05,25,07,11,17.50
2008,05,25,07,12,17.50
2008,05,25,07,13,17.60
2008,05,25,07,14,17.60
2008,05,25,07,15,17.70
2008,05,25,07,16,17.70
2008,05,25,07,17,17.70
2008,05,25,07,18,17.60
2008,05,25,07,19,17.60
2008,05,25,07,20,17.50
2008,05,25,07,21,17.50
2008,05,25,07,22,17.50
2008,05,25,07,23,17.50
2008,05,25,07,24,17.50
2008,05,25,07,25,17.50
2008,05,25,07,26,17.50
2008,05,25,07,27,17.40
2008,05,25,07,28,17.40
2008,05,25,07,29,17.40
2008,05,25,07,30,17.40
2008,05,25,07,31,17.40
2008,05,25,07,32,17.40
2008,05,25,07,33,17.30
2008,05,25,07,34,17.30
2008,05,25,07,35,17.30
2008,05,25,07,36,17.30
2008,05,25,07,37,17.40
2008,05,25,07,38,17.30
2008,05,25,07,39,17.30
2008,05,25,07,40,17.30
2008,05,25,07,41,17.30
2008,05,25,07,42,17.30
2008,05,25,07,43,17.30
2008,05,25,07,44,17.30
2008,05,25,07,45,17.30
2008,05,25,07,46,17.30
2008,05,25,07,47,17.30
2008,05,25,07,48,17.40
2008,05,25,07,49,17.30
2008,05,25,07,50,17.30
2008,05,25,07,51,17.30
2008,05,25,07,52,17.30
2008,05,25,07,53,17.30
2008,05,25,07,54,17.30
2008,05,25,07,55,17.30
2008,05,25,07,56,17.30
2008,05,25,07,57,17.40
2008,05,25,07,58,17.40
2008,05,25,07,59,17.40
2008,05,25,08,00,17.40
2008,05,25,08,01,17.40
2008,05,25,08,02,17.40
2008,05,25,08,03,17.40
2008,05,25,08,04,17.40
2008,05,25,08,05,17.50
2008,05,25,08,06,17.50
2008,05,25,08,07,17.50
2008,05,25,08,08,17.50
2008,05,25,08,09,17.50
2008,05,25,08,10,17.50
2008,05,25,08,11,17.60
2008,05,25,08,12,17.60
2008,05,25,08,13,17.60
2008,05,25,08,14,17.60
2008,05,25,08,15,17.60
2008,05,25,08,16,17.60
2008,05,25,08,17,17.60
2008,05,25,08,18,17.60
2008,05,25,08,19,17.60
2008,05,25,08,20,17.60
2008,05,25,08,21,17.60
2008,05,25,08,22,17.70
2008,05,25,08,23,17.80
2008,05,25,08,24,17.80
2008,05,25,08,25,17.90
2008,05,25,08,26,17.90
2008,05,25,08,27,17.90
2008,05,25,08,28,17.90
2008,05,25,08,29,17.90
2008,05,25,08,30,17.90
2008,05,25,08,31,17.90
2008,05,25,08,32,17.90
2008,05,25,08,33,17.90
2008,05,25,08,34,17.90
2008,05,25,08,35,17.90
2008,05,25,08,36,17.90
2008,05,25,08,37,17.90
2008,05,25,08,38,17.90
2008,05,25,08,39,17.90
2008,05,25,08,40,17.90
2008,05,25,08,41,17.90
2008,05,25,08,42,17.90
2008,05,25,08,43,17.90
2008,05,25,08,44,17.90
2008,05,25,08,45,17.90
2008,05,25,08,46,17.90
2008,05,25,08,47,17.90
2008,05,25,08,48,17.90
2008,05,25,08,49,17.90
2008,05,25,08,50,17.90
2008,05,25,08,51,17.90
2008,05,25,08,52,17.90
2008,05,25,08,53,17.90
2008,05,25,08,54,17.90
2008,05,25,08,55,17.80
2008,05,25,08,56,17.80
2008,05,25,08,57,17.80
2008,05,25,08,58,17.80
2008,05,25,08,59,17.70
2008,05,25,09,00,17.70
2008,05,25,09,01,17.70
2008,05,25,09,02,17.70
2008,05,25,09,03,17.70
2008,05,25,09,04,17.70
2008,05,25,09,05,17.60
2008,05,25,09,06,17.60
2008,05,25,09,07,17.60
2008,05,25,09,08,17.60
2008,05,25,09,09,17.60
2008,05,25,09,10,17.50
2008,05,25,09,11,17.50
2008,05,25,09,12,17.50
2008,05,25,09,13,17.40
2008,05,25,09,14,17.30
2008,05,25,09,15,17.30
2008,05,25,09,16,17.30
2008,05,25,09,17,17.30
2008,05,25,09,18,17.30
2008,05,25,09,19,17.30
2008,05,25,09,20,17.30
2008,05,25,09,21,17.30
2008,05,25,09,22,17.30
2008,05,25,09,23,17.30
2008,05,25,09,24,17.40
2008,05,25,09,25,17.40
2008,05,25,09,26,17.50
2008,05,25,09,27,17.50
2008,05,25,09,28,17.60
2008,05,25,09,29,17.60
2008,05,25,09,30,17.70
2008,05,25,09,31,17.70
2008,05,25,09,32,17.80
2008,05,25,09,33,17.80
2008,05,25,09,34,17.90
2008,05,25,09,35,17.90
2008,05,25,09,36,17.90
2008,05,25,09,37,18.00
2008,05,25,09,38,18.10
2008,05,25,09,39,18.10
2008,05,25,09,40,18.20
2008,05,25,09,41,18.20
2008,05,25,09,42,18.20
2008,05,25,09,43,18.20
2008,05,25,09,44,18.30
2008,05,25,09,45,18.30
2008,05,25,09,46,18.30
2008,05,25,09,47,18.30
2008,05,25,09,48,18.30
2008,05,25,09,49,18.30
2008,05,25,09,50,18.30
2008,05,25,09,51,18.30
2008,05,25,09,52,18.30
2008,05,25,09,53,18.30
2008,05,25,09,54,18.30
2008,05,25,09,55,18.40
2008,05,25,09,56,18.40
2008,05,25,09,57,18.40
2008,05,25,09,58,18.50
2008,05,25,09,59,18.50
2008,05,25,10,00,18.60
2008,05,25,10,01,18.70
2008,05,25,10,02,18.80
2008,05,25,10,03,18.90
2008,05,25,10,04,18.90
2008,05,25,10,05,19.00
2008,05,25,10,06,19.10
2008,05,25,10,07,19.20
2008,05,25,10,08,19.30
2008,05,25,10,09,19.40
2008,05,25,10,10,19.40
2008,05,25,10,11,19.20
2008,05,25,10,12,19.10
2008,05,25,10,13,18.90
2008,05,25,10,14,18.70
2008,05,25,10,15,18.60
2008,05,25,10,16,18.40
2008,05,25,10,17,18.30
2008,05,25,10,18,18.20
2008,05,25,10,19,18.10
2008,05,25,10,20,18.00
2008,05,25,10,21,17.90
2008,05,25,10,22,17.90
2008,05,25,10,23,17.90
2008,05,25,10,24,17.80
2008,05,25,10,25,17.80
2008,05,25,10,26,17.80
2008,05,25,10,27,17.80
2008,05,25,10,28,17.70
2008,05,25,10,29,17.70
2008,05,25,10,30,17.60
2008,05,25,10,31,17.50
2008,05,25,10,32,17.40
2008,05,25,10,33,17.40
2008,05,25,10,34,17.40
2008,05,25,10,35,17.40
2008,05,25,10,36,17.40
2008,05,25,10,37,17.40
2008,05,25,10,38,17.40
2008,05,25,10,39,17.50
2008,05,25,10,40,17.50
2008,05,25,10,41,17.50
2008,05,25,10,42,17.60
2008,05,25,10,43,17.70
2008,05,25,10,44,17.70
2008,05,25,10,45,17.70
2008,05,25,10,46,17.80
2008,05,25,10,47,17.90
2008,05,25,10,48,17.90
2008,05,25,10,49,18.10
2008,05,25,10,50,18.20
2008,05,25,10,51,18.30
2008,05,25,10,52,18.40
2008,05,25,10,53,18.40
2008,05,25,10,54,18.50
2008,05,25,10,55,18.50
2008,05,25,10,56,18.60
2008,05,25,10,57,18.70
2008,05,25,10,58,18.70
2008,05,25,10,59,18.90
2008,05,25,11,00,19.00
2008,05,25,11,01,19.10
2008,05,25,11,02,19.30
2008,05,25,11,03,19.40
2008,05,25,11,04,19.60
2008,05,25,11,05,19.70
2008,05,25,11,06,19.90
2008,05,25,11,07,19.90
2008,05,25,11,08,19.90
2008,05,25,11,09,19.90
2008,05,25,11,10,20.00
2008,05,25,11,11,20.10
2008,05,25,11,12,20.10
2008,05,25,11,13,20.20
2008,05,25,11,14,20.20
2008,05,25,11,15,20.40
2008,05,25,11,16,20.60
2008,05,25,11,17,20.80
2008,05,25,11,18,21.00
2008,05,25,11,19,21.20
2008,05,25,11,20,21.30
2008,05,25,11,21,21.40
2008,05,25,11,22,21.40
2008,05,25,11,23,21.50
2008,05,25,11,24,21.60
2008,05,25,11,25,21.60
2008,05,25,11,26,21.60
2008,05,25,11,27,21.60
2008,05,25,11,28,21.80
2008,05,25,11,29,21.90
2008,05,25,11,30,22.00
2008,05,25,11,31,22.00
2008,05,25,11,32,22.00
2008,05,25,11,33,22.10
2008,05,25,11,34,22.20
2008,05,25,11,35,22.20
2008,05,25,11,36,22.20
2008,05,25,11,37,22.20
2008,05,25,11,38,22.20
2008,05,25,11,39,22.20
2008,05,25,11,40,22.10
2008,05,25,11,41,22.10
2008,05,25,11,42,22.10
2008,05,25,11,43,22.10
2008,05,25,11,44,22.20
2008,05,25,11,45,22.00
2008,05,25,11,46,21.90
2008,05,25,11,47,21.80
2008,05,25,11,48,21.80
2008,05,25,11,49,21.70
2008,05,25,11,50,21.50
2008,05,25,11,51,21.30
2008,05,25,11,52,21.10
2008,05,25,11,53,20.90
2008,05,25,11,54,20.70
2008,05,25,11,55,20.60
2008,05,25,11,56,20.40
2008,05,25,11,57,20.10
2008,05,25,11,58,20.00
2008,05,25,11,59,19.90
2008,05,25,12,00,19.90
2008,05,25,12,01,20.00
2008,05,25,12,02,20.10
2008,05,25,12,03,20.10
2008,05,25,12,04,19.90
2008,05,25,12,05,19.90
2008,05,25,12,06,19.80
2008,05,25,12,07,19.80
2008,05,25,12,08,19.80
2008,05,25,12,09,19.80
2008,05,25,12,10,19.70
2008,05,25,12,11,19.70
2008,05,25,12,12,19.70
2008,05,25,12,13,19.70
2008,05,25,12,14,19.70
2008,05,25,12,15,19.70
2008,05,25,12,16,19.80
2008,05,25,12,17,19.90
2008,05,25,12,18,19.90
2008,05,25,12,19,19.90
2008,05,25,12,20,19.90
2008,05,25,12,21,19.90
2008,05,25,12,22,19.80
2008,05,25,12,23,19.70
2008,05,25,12,24,19.60
2008,05,25,12,25,19.60
2008,05,25,12,26,19.60
2008,05,25,12,27,19.60
2008,05,25,12,28,19.70
2008,05,25,12,29,19.80
2008,05,25,12,30,19.90
2008,05,25,12,31,19.90
2008,05,25,12,32,19.90
2008,05,25,12,33,19.90
2008,05,25,12,34,19.90
2008,05,25,12,35,20.00
2008,05,25,12,36,20.20
2008,05,25,12,37,20.30
2008,05,25,12,38,20.40
2008,05,25,12,39,20.50
2008,05,25,12,40,20.50
2008,05,25,12,41,20.50
2008,05,25,12,42,20.50
2008,05,25,12,43,20.50
2008,05,25,12,44,20.40
2008,05,25,12,45,20.40
2008,05,25,12,46,20.30
2008,05,25,12,47,20.20
2008,05,25,12,48,20.20
2008,05,25,12,49,20.10
2008,05,25,12,50,20.00
2008,05,25,12,51,19.90
2008,05,25,12,52,19.90
2008,05,25,12,53,19.90
2008,05,25,12,54,19.90
2008,05,25,12,55,19.90
2008,05,25,12,56,20.10
2008,05,25,12,57,20.10
2008,05,25,12,58,20.20
2008,05,25,12,59,20.30
2008,05,25,13,00,20.40
2008,05,25,13,01,20.50
2008,05,25,13,02,20.70
2008,05,25,13,03,20.80
2008,05,25,13,04,20.90
2008,05,25,13,05,21.00
2008,05,25,13,06,21.10
2008,05,25,13,07,21.00
2008,05,25,13,08,20.90
2008,05,25,13,09,20.80
2008,05,25,13,10,20.80
2008,05,25,13,11,20.90
2008,05,25,13,12,20.90
2008,05,25,13,13,20.90
2008,05,25,13,14,20.90
2008,05,25,13,15,20.80
2008,05,25,13,16,20.90
2008,05,25,13,17,20.80
2008,05,25,13,18,20.90
2008,05,25,13,19,20.90
2008,05,25,13,20,20.90
2008,05,25,13,21,20.90
2008,05,25,13,22,20.90
2008,05,25,13,23,21.00
2008,05,25,13,24,21.00
2008,05,25,13,25,21.10
2008,05,25,13,26,21.10
2008,05,25,13,27,21.10
2008,05,25,13,28,21.10
2008,05,25,13,29,21.10
2008,05,25,13,30,21.00
2008,05,25,13,31,21.00
2008,05,25,13,32,21.00
2008,05,25,13,33,21.00
2008,05,25,13,34,21.10
2008,05,25,13,35,21.20
2008,05,25,13,36,21.30
2008,05,25,13,37,21.30
2008,05,25,13,38,21.30
2008,05,25,13,39,21.20
2008,05,25,13,40,21.10
2008,05,25,13,41,21.00
2008,05,25,13,42,20.80
2008,05,25,13,43,20.70
2008,05,25,13,44,20.70
2008,05,25,13,45,20.70
2008,05,25,13,46,20.70
2008,05,25,13,47,20.70
2008,05,25,13,48,20.70
2008,05,25,13,49,20.60
2008,05,25,13,50,20.50
2008,05,25,13,51,20.50
2008,05,25,13,52,20.40
2008,05,25,13,53,20.40
2008,05,25,13,54,20.30
2008,05,25,13,55,20.20
2008,05,25,13,56,20.20
2008,05,25,13,57,20.20
2008,05,25,13,58,20.20
2008,05,25,13,59,20.20
2008,05,25,14,00,20.20
2008,05,25,14,01,20.20
2008,05,25,14,02,20.30
2008,05,25,14,03,20.40
2008,05,25,14,04,20.50
2008,05,25,14,05,20.50
2008,05,25,14,06,20.50
2008,05,25,14,07,20.40
2008,05,25,14,08,20.40
2008,05,25,14,09,20.50
2008,05,25,14,10,20.50
2008,05,25,14,11,20.50
2008,05,25,14,12,20.60
2008,05,25,14,13,20.70
2008,05,25,14,14,20.80
2008,05,25,14,15,20.80
2008,05,25,14,16,20.90
2008,05,25,14,17,21.00
2008,05,25,14,18,21.00
2008,05,25,14,19,21.10
2008,05,25,14,20,21.10
2008,05,25,14,21,21.20
2008,05,25,14,22,21.20
2008,05,25,14,23,21.20
2008,05,25,14,24,21.30
2008,05,25,14,25,21.30
2008,05,25,14,26,21.30
2008,05,25,14,27,21.30
2008,05,25,14,28,21.30
2008,05,25,14,29,21.50
2008,05,25,14,30,21.60
2008,05,25,14,31,21.80
2008,05,25,14,32,22.10
2008,05,25,14,33,22.30
2008,05,25,14,34,22.50
2008,05,25,14,35,22.50
2008,05,25,14,36,22.60
2008,05,25,14,37,22.60
2008,05,25,14,38,22.60
2008,05,25,14,39,22.60
2008,05,25,14,40,22.60
2008,05,25,14,41,22.70
2008,05,25,14,42,22.60
2008,05,25,14,43,22.60
2008,05,25,14,44,22.60
2008,05,25,14,45,22.60
2008,05,25,14,46,22.70
2008,05,25,14,47,22.70
2008,05,25,14,48,22.70
2008,05,25,14,49,22.70
2008,05,25,14,50,22.80
2008,05,25,14,51,22.80
2008,05,25,14,52,22.90
2008,05,25,14,53,22.90
2008,05,25,14,54,22.80
2008,05,25,14,55,22.70
2008,05,25,14,56,22.60
2008,05,25,14,57,22.70
2008,05,25,14,58,22.70
2008,05,25,14,59,22.80
2008,05,25,15,00,22.80
2008,05,25,15,01,22.80
2008,05,25,15,02,22.70
2008,05,25,15,03,22.70
2008,05,25,15,04,22.60
2008,05,25,15,05,22.50
2008,05,25,15,06,22.40
2008,05,25,15,07,22.30
2008,05,25,15,08,22.30
2008,05,25,15,09,22.40
2008,05,25,15,10,22.40
2008,05,25,15,11,22.40
2008,05,25,15,12,22.50
2008,05,25,15,13,22.60
2008,05,25,15,14,22.70
2008,05,25,15,15,22.80
2008,05,25,15,16,23.00
2008,05,25,15,17,23.20
2008,05,25,15,18,23.30
2008,05,25,15,19,23.30
2008,05,25,15,20,23.40
2008,05,25,15,21,23.50
2008,05,25,15,22,23.70
2008,05,25,15,23,23.80
2008,05,25,15,24,23.70
2008,05,25,15,25,23.70
2008,05,25,15,26,23.50
2008,05,25,15,27,23.40
2008,05,25,15,28,23.20
2008,05,25,15,29,23.20
2008,05,25,15,30,23.10
2008,05,25,15,31,23.20
2008,05,25,15,32,23.20
2008,05,25,15,33,23.20
2008,05,25,15,34,23.30
2008,05,25,15,35,23.30
2008,05,25,15,36,23.30
2008,05,25,15,37,23.30
2008,05,25,15,38,23.30
2008,05,25,15,39,23.30
2008,05,25,15,40,23.40
2008,05,25,15,41,23.50
2008,05,25,15,42,23.60
2008,05,25,15,43,23.60
2008,05,25,15,44,23.60
2008,05,25,15,45,23.60
2008,05,25,15,46,23.50
2008,05,25,15,47,23.50
2008,05,25,15,48,23.60
2008,05,25,15,49,23.50
2008,05,25,15,50,23.40
2008,05,25,15,51,23.30
2008,05,25,15,52,23.30
2008,05,25,15,53,23.30
2008,05,25,15,54,23.30
2008,05,25,15,55,23.30
2008,05,25,15,56,23.30
2008,05,25,15,57,23.30
2008,05,25,15,58,23.30
2008,05,25,15,59,23.30
2008,05,25,16,00,23.20
2008,05,25,16,01,23.10
2008,05,25,16,02,23.10
2008,05,25,16,03,23.10
2008,05,25,16,04,23.10
2008,05,25,16,05,23.10
2008,05,25,16,06,23.10
2008,05,25,16,07,23.10
2008,05,25,16,08,23.10
2008,05,25,16,09,23.30
2008,05,25,16,10,23.30
2008,05,25,16,11,23.50
2008,05,25,16,12,23.60
2008,05,25,16,13,23.70
2008,05,25,16,14,23.70
2008,05,25,16,15,23.80
2008,05,25,16,16,23.80
2008,05,25,16,17,23.90
2008,05,25,16,18,23.90
2008,05,25,16,19,23.90
2008,05,25,16,20,23.90
2008,05,25,16,21,24.00
2008,05,25,16,22,24.10
2008,05,25,16,23,24.10
2008,05,25,16,24,24.10
2008,05,25,16,25,24.10
2008,05,25,16,26,24.30
2008,05,25,16,27,24.30
2008,05,25,16,28,24.40
2008,05,25,16,29,24.60
2008,05,25,16,30,24.70
2008,05,25,16,31,24.80
2008,05,25,16,32,24.80
2008,05,25,16,33,24.80
2008,05,25,16,34,24.70
2008,05,25,16,35,24.50
2008,05,25,16,36,24.40
2008,05,25,16,37,24.10
2008,05,25,16,38,24.00
2008,05,25,16,39,23.90
2008,05,25,16,40,23.90
2008,05,25,16,41,24.00
2008,05,25,16,42,24.10
2008,05,25,16,43,24.10
2008,05,25,16,44,24.00
2008,05,25,16,45,23.90
2008,05,25,16,46,24.00
2008,05,25,16,47,24.10
2008,05,25,16,48,24.10
2008,05,25,16,49,24.20
2008,05,25,16,50,24.40
2008,05,25,16,51,24.40
2008,05,25,16,52,24.50
2008,05,25,16,53,24.50
2008,05,25,16,54,24.50
2008,05,25,16,55,24.50
2008,05,25,16,56,24.50
2008,05,25,16,57,24.40
2008,05,25,16,58,24.30
2008,05,25,16,59,24.20
2008,05,25,17,00,24.10
2008,05,25,17,01,23.90
2008,05,25,17,02,23.80
2008,05,25,17,03,23.70
2008,05,25,17,04,23.80
2008,05,25,17,05,23.80
2008,05,25,17,06,23.80
2008,05,25,17,07,23.80
2008,05,25,17,08,23.80
2008,05,25,17,09,23.80
2008,05,25,17,10,23.80
2008,05,25,17,11,23.90
2008,05,25,17,12,23.90
2008,05,25,17,13,24.00
2008,05,25,17,14,24.10
2008,05,25,17,15,24.00
2008,05,25,17,16,23.90
2008,05,25,17,17,23.90
2008,05,25,17,18,23.80
2008,05,25,17,19,23.80